Location: Middle Street
(51.7167°N, 0.0333°E)
Time: 03:05:12
(UTC+00:00)

Cosmos 1818 - Pass Details

Date: 20 January 2021
Orbit: 773 x 800 km, 65.0° (Epoch: 24 February)

Event Time Altitude Azimuth Distance (km) Brightness Sun altitude
Rises 18:25:41 0° 198° (SSW) 3,267 7.2 -17.8°
Reaches altitude 10° 18:28:10 10° 193° (SSW) 2,347 6.3 -18.1°
Maximum altitude 18:33:17 46° 121° (ESE) 1,062 3.9 -18.9°
Enters shadow 18:34:50 36° 79° (E) 1,238 4.0 -19.2°
